Location: Bush Observatory
(40.2653°N, 94.3194°W)
Time: 08:29:57
(UTC-05:00)

Daily predictions for brighter satellites

Satellite Brightness Start Highest point End
(mag) Time Altitude Azimuth Time Altitude Azimuth Time Altitude Azimuth
Cosmos 1844 Rocket 4.5 20:38:21 10° NNE 20:41:41 16° NE 20:45:01 10° E
USA 267 3.4 20:39:55 10° NE 20:46:30 86° NW 20:53:03 10° SW
DELTA 2 R/B(2) 4.1 20:44:38 10° W 20:48:59 69° SSW 20:50:53 11° ESE
Cosmos 2242 Rocket 3.6 20:44:48 10° S 20:49:19 89° NW 20:53:47 10° N
Meteor 2-10 Rocket 4.3 20:44:45 10° SSE 20:50:04 38° E 20:55:20 10° NNE
Cosmos 1655 Rocket 4.1 20:43:50 10° N 20:50:13 65° E 20:56:29 10° SSE
Cosmos 2279 Rocket 4.0 20:52:47 10° S 20:59:00 75° E 21:05:14 10° N
BREEZE-M DEB (TANK) 4.3 20:58:07 10° WNW 21:01:09 44° N 21:08:48 10° ENE
CZ-4B DEB 3.3 21:00:34 12° SE 21:03:04 37° ENE 21:05:54 10° N
Cosmos 1933 3.2 20:59:26 10° S 21:03:26 73° E 21:07:27 10° NNE
Cosmos 2219 Rocket 3.7 21:01:52 12° SE 21:04:11 15° E 21:07:17 10° ENE
Cosmos 968 Rocket 3.8 21:00:04 10° N 21:05:09 51° ENE 21:09:48 12° SE
Spot 2 Rocket 4.0 21:00:21 10° S 21:05:23 62° WSW 21:10:26 10° NNW
Cosmos 1428 Rocket 4.4 21:05:04 10° N 21:11:12 81° E 21:17:19 10° S
Resurs 01 Rocket 2.9 21:09:13 10° S 21:13:25 41° W 21:17:39 10° NNW
SAR-Lupe-4 3.5 21:12:40 10° SSE 21:16:14 83° ENE 21:19:50 10° N
Cosmos 1862 3.7 21:12:15 10° NNW 21:16:16 66° W 21:20:16 10° S
Cosmos 1908 Rocket 3.7 21:13:17 10° N 21:17:31 51° E 21:20:54 15° SSE
USA 234 3.8 21:14:54 13° ESE 21:20:27 50° NNE 21:26:43 10° NW
Meteor 1-29 2.8 21:20:31 10° NNE 21:24:00 81° ESE 21:27:25 10° S
Cosmos 1782 4.3 21:24:25 18° E 21:24:43 18° E 21:27:30 10° NE
Cosmos 2263 Rocket 2.8 21:19:42 10° NNW 21:25:08 56° WSW 21:30:34 10° S
Envisat 3.0 21:20:33 10° SSE 21:25:37 90° ENE 21:30:44 10° NNW
Meteor 1-26 Rocket 4.2 21:21:00 10° S 21:26:38 67° E 21:32:25 10° NNE
Sich 1 Rocket 3.6 21:24:19 10° N 21:28:48 69° E 21:32:21 16° SSE
Helios 1A 3.4 21:25:54 10° S 21:30:05 64° WSW 21:34:20 10° NNW
Cosmos 1782 Rocket 4.0 21:28:06 10° N 21:32:17 42° ENE 21:34:23 25° SE
OAO 3 Rocket 4.4 21:28:18 10° WSW 21:32:31 30° SSW 21:34:50 20° SSE
Cosmos 1733 Rocket 4.3 21:28:55 10° NNW 21:33:09 43° W 21:37:20 10° SSW
SAR-Lupe-1 4.3 21:30:30 14° S 21:33:31 69° WSW 21:37:07 10° NNW
Okean 1-7 3.4 21:33:16 21° SSE 21:35:47 43° E 21:39:58 10° NNE
Cosmos 1867 3.7 21:31:57 10° NW 21:37:24 73° WSW 21:41:15 20° SSE
Cosmos 2322 Rocket 4.5 21:33:48 10° WSW 21:38:31 27° NW 21:43:18 10° N
H-2A R/B 3.6 21:37:56 16° E 21:39:21 18° ENE 21:42:38 10° NNE
CZ-4C R/B 4.1 21:33:28 10° NNW 21:39:27 29° NE 21:44:27 15° E
Cosmos 1939 Rocket 3.1 21:38:03 15° S 21:41:18 70° W 21:45:16 10° NNW
Cosmos 2237 4.1 21:35:45 10° SSW 21:41:28 78° ESE 21:47:13 10° NNE
SeaSat 1 4.0 21:41:46 17° E 21:43:51 22° NE 21:47:35 10° N
ERS-1 Rocket 3.0 21:41:59 24° SSE 21:44:57 64° ENE 21:49:56 10° N
Cosmos 2360 Rocket 2.8 21:39:35 10° SW 21:45:08 59° WNW 21:50:46 10° NNE
SPOT 5 3.5 21:48:33 29° ESE 21:49:59 36° ENE 21:54:10 10° N
Okean 2 Rocket 3.4 21:45:59 10° N 21:50:23 48° E 21:51:48 35° SE
COSMOS 2428 2.6 21:45:25 10° SSW 21:51:03 71° ESE 21:56:45 10° NNE
ATLAS 5 CENTAUR R/B 3.1 21:48:50 10° NW 21:54:42 49° WSW 21:59:23 18° S
Atlas Centaur 2 3.4 21:49:51 10° WSW 21:55:52 37° S 21:58:46 28° SE
NOAA 11 4.3 21:56:07 31° SE 21:58:42 62° ENE 22:04:07 10° N
Cosmos 1844 4.1 21:55:40 10° NNW 22:01:09 48° ENE 22:03:06 34° ESE
ARGOS 3.5 22:00:07 34° ESE 22:02:01 49° ENE 22:07:11 10° N
NOSS 3-1 (C) 3.3 21:56:32 10° SSW 22:02:05 57° ESE 22:08:17 10° NE
Cosmos 1606 3.4 22:02:44 36° ENE 22:02:44 36° ENE 22:05:45 10° NNE
Meteor 1-10 Rocket 4.5 22:00:10 30° SSE 22:02:50 51° E 22:08:28 10° NNE
Cosmos 1703 Rocket 4.1 22:00:13 10° SSW 22:04:35 57° W 22:08:56 10° N
Milstar 3 4.2 22:02:04 10° WSW 22:07:33 21° SSW 22:09:37 18° S
MOS 1-B Rocket 4.0 22:06:17 35° SE 22:08:29 55° ENE 22:13:57 10° N
USA 229 DEB 4.3 22:02:29 10° SW 22:09:12 60° NW 22:16:06 10° NNE
USA 229 4.2 22:02:36 10° SW 22:09:19 60° NW 22:16:12 10° NNE
YAOGAN 6 3.4 22:09:21 32° SSW 22:10:39 48° W 22:14:09 10° NNW
Meteor 1-25 Rocket 4.1 22:07:19 10° N 22:12:55 85° W 22:15:33 33° S
NOSS 3-1 (A) 3.3 22:16:00 24° S 22:19:22 56° ESE 22:25:32 10° NE
Meteor 1-20 Rocket 4.2 22:14:19 10° N 22:19:57 84° W 22:22:23 36° S
Cosmos 1777 Rocket 4.3 22:18:47 10° NNW 22:24:00 63° WSW 22:25:54 38° S
Cosmos 2237 Rocket 2.5 22:24:38 43° ESE 22:24:38 43° ESE 22:29:52 10° NE
Cosmos 2151 Rocket 3.7 22:20:38 10° N 22:25:01 55° E 22:25:01 55° E
Cosmos 1844 Rocket 2.6 22:20:42 10° NNW 22:26:17 82° WSW 22:27:55 48° SSE
MetOp-A 4.2 22:24:43 39° S 22:26:47 74° WSW 22:32:09 10° NNW
SPOT 1/Viking Rocket 3.6 22:26:06 52° ESE 22:27:01 61° ENE 22:32:10 10° N
Terra 3.0 22:28:13 27° ENE 22:28:13 27° ENE 22:32:06 10° N
Cosmos 2333 Rocket 2.1 22:28:14 41° S 22:30:14 68° ESE 22:35:59 10° NNE
Cosmos 2278 Rocket 2.6 22:25:04 10° NNW 22:30:30 45° ENE 22:31:26 42° E
NOSS 0 Rocket 3.8 22:30:34 43° S 22:32:26 63° ESE 22:38:30 10° NNE
YAOGAN 11 4.4 22:34:50 52° SW 22:35:32 60° WSW 22:39:50 10° NNW
Meteor 2-6 Rocket 4.2 22:33:58 38° S 22:36:25 88° E 22:42:24 10° N
Abrixas rocket 4.0 22:35:28 10° NW 22:37:53 29° N 22:37:53 29° N
H-2A R/B 2.9 22:47:46 40° NE 22:47:46 40° NE 22:51:09 10° N
Cosmos 2219 Rocket 2.4 22:43:23 19° SW 22:47:27 69° WNW 22:53:04 10° NNE
Gbstr 26 Del rocket 4.4 22:41:28 10° SW 22:49:06 71° SE 22:57:13 10° NE
Cosmos 1633 3.7 22:45:34 10° N 22:48:06 42° N 22:48:06 42° N
Cosmos 1782 4.5 23:00:01 27° W 23:00:50 29° WNW 23:04:23 10° NNW
USA 234 3.6 23:02:14 45° SSW 23:03:25 50° SW 23:09:46 10° NW
SL-08 R/B 4.3 23:01:07 10° N 23:07:16 83° W 23:08:00 70° SSW
Cosmos 1553 Rocket 4.0 23:06:14 57° SSW 23:07:35 79° W 23:13:49 10° N
Cosmos 1300 Rocket 4.3 23:05:22 10° N 23:08:37 50° N 23:08:37 50° N
Cosmos 1346 Rocket 4.2 23:14:37 36° NNW 23:14:37 36° NNW 23:17:23 10° N
H-2A R/B 2.5 23:18:33 52° W 23:18:33 52° W 23:23:11 10° NNW
SeaSat 1 3.0 23:21:33 51° W 23:21:33 51° W 23:25:52 10° NW
Meteor 1-27 Rocket 4.2 23:22:18 50° WSW 23:23:08 55° WNW 23:28:38 10° N
Cosmos 2298 Rocket 4.3 23:18:39 10° NNW 23:23:16 65° N 23:23:16 65° N
Cosmos 2297 4.0 23:22:21 10° NNW 23:27:27 57° NE 23:27:27 57° NE
CZ-4C R/B 2.8 23:21:27 10° NW 23:28:42 77° WSW 23:29:38 69° S
Cosmos 883 Rocket 4.4 23:35:25 76° NNE 23:35:25 76° NNE 23:41:05 10° N
Cosmos 1937 Rocket 4.0 23:30:16 10° NNW 23:34:27 57° N 23:34:27 57° N
Cosmos 1386 Rocket 4.5 23:32:01 10° N 23:38:23 75° W 23:38:26 75° W
ATLAS CENTAUR R/B 4.0 23:45:52 15° NNE 23:45:52 15° NNE 23:46:37 10° NNE
Atlas Centaur 2 4.4 23:38:44 10° WSW 23:41:23 20° SW 23:41:23 20° SW
Cosmos 1709 Rocket 4.1 23:41:03 10° N 23:46:56 73° NNE 23:46:56 73° NNE
SL-16 R/B 2.8 23:49:40 52° NNE 23:49:40 52° NNE 23:53:55 10° NNE
